When you browse on this site, cookies collect data to enhance your experience and personalize the content and advertising you see.
Visit our Privacy Policy to learn more. By continuing to use the site, you agree to this use of cookies and data.
  • In Czech Republic
  • List of Countries
  • For 7 days
  • Water Temperature
  • Satellite Maps
  • Weather Map
  • Weather Widgets
  • user-avatar
    Login

    Hourly Weather Changchun

    Today, 18 June, Tuesday

    Time Temperature Precipitation Wind Pressure Humidity
    00:00 +16°C° 0 mm 2 mps 737 mmHg 50%
    01:00 +16°C° 0 mm 2 mps 736 mmHg 51%
    02:00 +16°C° 0 mm 2 mps 736 mmHg 51%
    03:00 +16°C° 0 mm 2 mps 736 mmHg 53%
    04:00 +15°C° 0 mm 2 mps 736 mmHg 55%
    05:00 +15°C° 0 mm 2 mps 736 mmHg 58%
    06:00 +18°C° 0 mm 2 mps 736 mmHg 53%
    07:00 +20°C° 0 mm 2 mps 737 mmHg 47%
    08:00 +23°C° 0 mm 2 mps 737 mmHg 42%
    09:00 +25°C° 0 mm 2 mps 737 mmHg 39%
    10:00 +26°C° 0 mm 2 mps 737 mmHg 36%
    11:00 +27°C° 0 mm 2 mps 736 mmHg 33%
    12:00 +28°C° 0 mm 3 mps 736 mmHg 32%
    13:00 +29°C° 0 mm 3 mps 736 mmHg 31%
    14:00 +29°C° 0 mm 3 mps 735 mmHg 30%
    15:00 +29°C° 0 mm 3 mps 735 mmHg 32%
    16:00 +29°C° 0 mm 3 mps 735 mmHg 34%
    17:00 +28°C° 0 mm 4 mps 735 mmHg 36%
    18:00 +26°C° 0 mm 3 mps 735 mmHg 39%
    19:00 +24°C° 0 mm 2 mps 735 mmHg 43%
    20:00 +21°C° 0 mm 2 mps 735 mmHg 46%
    21:00 +20°C° 0 mm 2 mps 735 mmHg 49%
    22:00 +19°C° 0 mm 2 mps 735 mmHg 51%
    23:00 +18°C° 0 mm 2 mps 735 mmHg 54%

    Tomorrow, 19 June, Wednesday

    Time Temperature Precipitation Wind Pressure Humidity
    00:00 +18°C° 0 mm 2 mps 735 mmHg 55%
    01:00 +18°C° 0 mm 2 mps 735 mmHg 56%
    02:00 +17°C° 0 mm 2 mps 735 mmHg 57%
    03:00 +17°C° 0 mm 3 mps 735 mmHg 61%
    04:00 +17°C° 0 mm 3 mps 735 mmHg 64%
    05:00 +17°C° 0 mm 3 mps 734 mmHg 68%
    06:00 +20°C° 0 mm 4 mps 734 mmHg 64%
    07:00 +22°C° 0 mm 5 mps 734 mmHg 61%
    08:00 +24°C° 0 mm 6 mps 734 mmHg 57%
    09:00 +27°C° 0 mm 7 mps 734 mmHg 51%
    10:00 +29°C° 0 mm 7 mps 733 mmHg 45%
    11:00 +32°C° 0 mm 8 mps 733 mmHg 38%
    12:00 +33°C° 0 mm 7 mps 732 mmHg 35%
    13:00 +34°C° 0 mm 7 mps 732 mmHg 32%
    14:00 +34°C° 0 mm 7 mps 732 mmHg 28%
    15:00 +32°C° 0.8 mm 8 mps 731 mmHg 39%
    16:00 +28°C° 0.8 mm 8 mps 731 mmHg 50%
    17:00 +26°C° 0.8 mm 9 mps 730 mmHg 60%
    18:00 +24°C° 0.5 mm 7 mps 731 mmHg 60%
    19:00 +23°C° 0.5 mm 5 mps 731 mmHg 60%
    20:00 +24°C° 0.5 mm 3 mps 731 mmHg 60%
    21:00 +22°C° 0.3 mm 3 mps 731 mmHg 64%
    22:00 +21°C° 0.3 mm 3 mps 731 mmHg 69%
    23:00 +21°C° 0.3 mm 2 mps 731 mmHg 73%

    Day after tomorrow, 20 June, Thursday

    Time Temperature Precipitation Wind Pressure Humidity
    00:00 +20°C° 0.4 mm 3 mps 731 mmHg 78%
    01:00 +19°C° 0.4 mm 3 mps 731 mmHg 83%
    02:00 +18°C° 0.4 mm 3 mps 731 mmHg 88%
    03:00 +18°C° 0.1 mm 3 mps 732 mmHg 87%
    04:00 +18°C° 0.1 mm 2 mps 732 mmHg 85%
    05:00 +18°C° 0.1 mm 2 mps 732 mmHg 84%
    06:00 +19°C° 0 mm 3 mps 733 mmHg 73%
    07:00 +20°C° 0 mm 4 mps 733 mmHg 63%
    08:00 +21°C° 0 mm 5 mps 734 mmHg 53%
    09:00 +22°C° 0 mm 5 mps 734 mmHg 49%
    10:00 +22°C° 0 mm 6 mps 734 mmHg 45%
    11:00 +23°C° 0 mm 6 mps 735 mmHg 41%
    12:00 +23°C° 0 mm 6 mps 735 mmHg 40%
    13:00 +23°C° 0 mm 6 mps 735 mmHg 40%
    14:00 +23°C° 0 mm 5 mps 735 mmHg 39%
    15:00 +23°C° 0 mm 5 mps 735 mmHg 41%
    16:00 +23°C° 0 mm 5 mps 735 mmHg 43%
    17:00 +22°C° 0 mm 4 mps 735 mmHg 45%
    18:00 +21°C° 0 mm 4 mps 735 mmHg 50%
    19:00 +20°C° 0 mm 3 mps 736 mmHg 55%
    20:00 +18°C° 0 mm 2 mps 736 mmHg 60%
    21:00 +18°C° 0 mm 2 mps 736 mmHg 62%
    22:00 +17°C° 0 mm 2 mps 737 mmHg 63%
    23:00 +17°C° 0 mm 2 mps 737 mmHg 65%

    21 June, Friday

    Time Temperature Precipitation Wind Pressure Humidity
    00:00 +16°C° 0 mm 2 mps 737 mmHg 67%
    01:00 +16°C° 0 mm 2 mps 737 mmHg 70%
    02:00 +15°C° 0 mm 2 mps 737 mmHg 73%
    03:00 +15°C° 0 mm 2 mps 737 mmHg 75%
    04:00 +15°C° 0 mm 2 mps 737 mmHg 78%
    05:00 +15°C° 0 mm 2 mps 737 mmHg 81%
    06:00 +17°C° 0 mm 2 mps 738 mmHg 75%
    07:00 +18°C° 0 mm 3 mps 738 mmHg 68%
    08:00 +20°C° 0 mm 4 mps 738 mmHg 62%
    09:00 +22°C° 0 mm 4 mps 738 mmHg 58%
    10:00 +23°C° 0 mm 4 mps 738 mmHg 55%
    11:00 +25°C° 0 mm 5 mps 738 mmHg 51%
    12:00 +26°C° 0 mm 5 mps 738 mmHg 48%
    13:00 +27°C° 0 mm 5 mps 738 mmHg 46%
    14:00 +27°C° 0 mm 4 mps 737 mmHg 44%
    15:00 +27°C° 0 mm 4 mps 737 mmHg 44%
    16:00 +27°C° 0 mm 4 mps 737 mmHg 45%
    17:00 +27°C° 0 mm 4 mps 737 mmHg 45%
    18:00 +25°C° 0 mm 3 mps 737 mmHg 51%
    19:00 +24°C° 0 mm 3 mps 737 mmHg 57%
    20:00 +21°C° 0 mm 2 mps 737 mmHg 62%
    21:00 +20°C° 0 mm 2 mps 737 mmHg 66%
    22:00 +20°C° 0 mm 1 mps 737 mmHg 70%
    23:00 +19°C° 0 mm 1 mps 737 mmHg 74%

    22 June, Saturday

    Time Temperature Precipitation Wind Pressure Humidity
    00:00 +19°C° 0 mm 1 mps 737 mmHg 75%
    01:00 +17°C° 0 mm 0 mps 737 mmHg 76%
    02:00 +16°C° 0 mm 0 mps 737 mmHg 77%
    03:00 +17°C° 0 mm 0 mps 737 mmHg 77%
    04:00 +17°C° 0 mm 0 mps 737 mmHg 76%
    05:00 +17°C° 0 mm 0 mps 737 mmHg 76%
    06:00 +21°C° 0 mm 1 mps 737 mmHg 68%
    07:00 +23°C° 0 mm 1 mps 738 mmHg 60%
    08:00 +25°C° 0 mm 2 mps 738 mmHg 52%
    09:00 +26°C° 0 mm 2 mps 738 mmHg 47%
    10:00 +28°C° 0 mm 3 mps 738 mmHg 42%
    11:00 +29°C° 0 mm 3 mps 737 mmHg 37%
    12:00 +29°C° 0 mm 3 mps 737 mmHg 35%
    13:00 +30°C° 0 mm 3 mps 737 mmHg 34%
    14:00 +30°C° 0 mm 2 mps 736 mmHg 32%
    15:00 +30°C° 0 mm 2 mps 736 mmHg 33%
    16:00 +30°C° 0 mm 2 mps 736 mmHg 34%
    17:00 +30°C° 0 mm 2 mps 735 mmHg 35%
    18:00 +28°C° 0 mm 2 mps 735 mmHg 41%
    19:00 +26°C° 0 mm 1 mps 735 mmHg 47%
    20:00 +24°C° 0 mm 1 mps 735 mmHg 54%
    21:00 +23°C° 0 mm 2 mps 735 mmHg 57%
    22:00 +23°C° 0 mm 2 mps 735 mmHg 60%
    23:00 +21°C° 0 mm 2 mps 736 mmHg 63%

    23 June, Sunday

    Time Temperature Precipitation Wind Pressure Humidity
    00:00 +21°C° 0 mm 2 mps 736 mmHg 63%
    01:00 +20°C° 0 mm 2 mps 735 mmHg 64%
    02:00 +20°C° 0 mm 2 mps 735 mmHg 65%
    03:00 +20°C° 0.1 mm 2 mps 736 mmHg 66%
    04:00 +20°C° 0.1 mm 2 mps 736 mmHg 67%
    05:00 +20°C° 0.1 mm 2 mps 736 mmHg 68%
    06:00 +21°C° 0 mm 2 mps 736 mmHg 66%
    07:00 +22°C° 0 mm 3 mps 736 mmHg 65%
    08:00 +22°C° 0 mm 4 mps 736 mmHg 64%
    09:00 +26°C° 0 mm 4 mps 736 mmHg 56%
    10:00 +28°C° 0 mm 4 mps 736 mmHg 48%
    11:00 +32°C° 0 mm 4 mps 736 mmHg 40%
    12:00 +32°C° 0 mm 4 mps 735 mmHg 39%
    13:00 +33°C° 0 mm 3 mps 735 mmHg 37%
    14:00 +34°C° 0 mm 3 mps 734 mmHg 35%
    15:00 +33°C° 0 mm 3 mps 734 mmHg 37%
    16:00 +33°C° 0 mm 3 mps 734 mmHg 38%
    17:00 +32°C° 0 mm 2 mps 734 mmHg 39%
    18:00 +30°C° 0 mm 3 mps 734 mmHg 45%
    19:00 +28°C° 0 mm 3 mps 734 mmHg 51%
    20:00 +26°C° 0 mm 3 mps 734 mmHg 57%
    21:00 +25°C° 0 mm 3 mps 734 mmHg 59%
    22:00 +24°C° 0 mm 3 mps 735 mmHg 61%
    23:00 +23°C° 0 mm 2 mps 735 mmHg 63%
    Show more